sat.trackr.live / text

‹ back to catalog

YAOGAN-43 01B

NORAD 60459 · 2024-148B

PAYLOAD ACTIVE UNKNOWN

§ Identity

Operator
Country
PRC
Launch date
2024-08-16
Launch site
XICLF
Launch vehicle
Mass (kg)
RCS (m²)

External: N2YO · Heavens-Above · Gunter

§ Orbital elements

Epoch: 2026-09-22T23:14:38.361984Z

Period
93.63 min
Inclination
34.9914°
Eccentricity
0.0006311
Mean motion
15.37947250 rev/d
Perigee alt
447.9 km
Apogee alt
456.5 km
Semi-major
6,830.3 km
B*
2.7055e-4
RAAN
225.8878°
Arg perigee
20.2363°
Mean anomaly
339.8605°
Rev number
11,748

§ Raw data

YAOGAN-43 01B1 60459U 24148B   26265.96849956  .00010355  00000+0  27055-3 0  99952 60459  34.9914 225.8878 0006311  20.2363 339.8605 15.37947250117481

JSON: /api/v1/satellites/60459 · /tle

For live sub-satellite position, see the globe view (requires WebGL).

§ Visibility from observer

Set your observer location to see the next 7 days of passes ≥ 10°. The values pass through the URL so the page stays shareable.

No JS? Fill the form by hand. The geolocation button needs JavaScript.